TimeHST,TemperatureF,Dew PointF,Humidity,Sea Level PressureIn,VisibilityMPH,Wind Direction,Wind SpeedMPH,Gust SpeedMPH,PrecipitationIn,Events,Conditions,WindDirDegrees,DateUTC
12:53 AM,75.0,64.9,71,30.11,10.0,ENE,12.7,-,N/A,,Partly Cloudy,60,2013-05-15 10:53:00
1:53 AM,75.0,64.9,71,30.09,10.0,NE,8.1,-,N/A,,Scattered Clouds,50,2013-05-15 11:53:00
2:53 AM,75.0,64.0,69,30.09,10.0,Variable,4.6,-,N/A,,Scattered Clouds,0,2013-05-15 12:53:00
3:53 AM,75.0,64.9,71,30.08,10.0,NNE,10.4,19.6,N/A,,Mostly Cloudy,20,2013-05-15 13:53:00
4:53 AM,75.0,64.9,71,30.08,10.0,NNE,8.1,19.6,N/A,,Scattered Clouds,20,2013-05-15 14:53:00
5:53 AM,73.9,64.9,73,30.09,10.0,NNE,5.8,-,N/A,,Scattered Clouds,30,2013-05-15 15:53:00
6:53 AM,75.0,64.9,71,30.10,10.0,NE,9.2,-,N/A,,Scattered Clouds,40,2013-05-15 16:53:00
7:53 AM,78.1,64.0,62,30.12,10.0,ENE,12.7,21.9,N/A,,Scattered Clouds,60,2013-05-15 17:53:00
8:53 AM,80.1,63.0,56,30.13,10.0,ENE,16.1,-,N/A,,Scattered Clouds,70,2013-05-15 18:53:00
9:53 AM,80.1,64.0,58,30.14,10.0,NE,15.0,24.2,N/A,,Scattered Clouds,50,2013-05-15 19:53:00
10:53 AM,82.9,64.0,53,30.12,10.0,ENE,17.3,23.0,N/A,,Scattered Clouds,60,2013-05-15 20:53:00
11:53 AM,82.9,63.0,51,30.11,10.0,ENE,17.3,25.3,N/A,,Scattered Clouds,70,2013-05-15 21:53:00
12:53 PM,82.9,63.0,51,30.09,10.0,NE,16.1,23.0,N/A,,Scattered Clouds,50,2013-05-15 22:53:00
1:53 PM,84.9,62.1,46,30.09,10.0,NE,17.3,24.2,N/A,,Scattered Clouds,50,2013-05-15 23:53:00
2:53 PM,82.9,62.1,49,30.09,10.0,NE,16.1,26.5,N/A,,Scattered Clouds,50,2013-05-16 00:53:00
3:53 PM,82.0,64.0,54,30.08,10.0,NE,15.0,21.9,N/A,,Mostly Cloudy,50,2013-05-16 01:53:00
4:53 PM,81.0,64.0,56,30.09,10.0,ENE,18.4,24.2,N/A,,Mostly Cloudy,60,2013-05-16 02:53:00
5:53 PM,79.0,64.9,62,30.09,10.0,NE,12.7,-,N/A,,Mostly Cloudy,40,2013-05-16 03:53:00
6:53 PM,75.9,66.9,74,30.11,10.0,East,10.4,19.6,0.00,Rain,Light Rain,80,2013-05-16 04:53:00
7:53 PM,75.9,66.0,71,30.13,10.0,ENE,9.2,-,0.00,,Scattered Clouds,60,2013-05-16 05:53:00
8:53 PM,75.9,64.9,69,30.14,10.0,ENE,12.7,-,N/A,,Scattered Clouds,60,2013-05-16 06:53:00
9:53 PM,75.9,66.0,71,30.15,10.0,ENE,9.2,-,N/A,,Scattered Clouds,70,2013-05-16 07:53:00
10:53 PM,75.0,66.0,73,30.15,10.0,East,8.1,-,N/A,,Scattered Clouds,80,2013-05-16 08:53:00
11:53 PM,75.0,66.0,73,30.14,10.0,ENE,11.5,-,0.00,Rain,Light Rain,70,2013-05-16 09:53:00